N7NKE Weather Reports


time (UTC)temp
C
wind
direction
speed
KPH
gust
KPH
rain 1hr
cm
rain 24hr
cm
rain mn
cm
humidity
%
barometer
mb
20260508115504 10 249 0.0 1.6 0.00 0.00 0.00 89 1018.5
20260508115004 9 249 0.0 3.2 0.00 0.00 0.00 88 1018.5
20260508114505 9 317 1.6 3.2 0.00 0.00 0.00 88 1018.4
20260508114005 9 276 0.0 3.2 0.00 0.00 0.00 88 1018.4
20260508113504 9 354 0.0 3.2 0.00 0.00 0.00 87 1018.4
20260508113006 9 0 0.0 3.2 0.00 0.00 0.00 87 1018.3
20260508112504 9 248 0.0 3.2 0.00 0.00 0.00 87 1018.3
20260508112004 9 249 0.0 1.6 0.00 0.00 0.00 87 1018.3
20260508111005 9 249 0.0 3.2 0.00 0.00 0.00 87 1018.0
20260508110505 10 249 0.0 3.2 0.00 0.00 0.00 87 1017.9
20260508110005 10 249 0.0 1.6 0.00 0.00 0.00 87 1017.9
20260508105504 10 250 0.0 1.6 0.00 0.00 0.00 87 1017.9
20260508105005 10 248 0.0 0.0 0.00 0.00 0.00 87 1017.8
20260508104505 10 248 0.0 0.0 0.00 0.00 0.00 87 1017.8
20260508104004 10 248 0.0 0.0 0.00 0.00 0.00 87 1017.8
20260508103504 10 248 0.0 3.2 0.00 0.00 0.00 87 1017.7
20260508103004 10 248 0.0 3.2 0.00 0.00 0.00 87 1017.7
20260508102504 10 354 0.0 3.2 0.00 0.00 0.00 86 1017.6
20260508102005 10 342 0.0 3.2 0.00 0.00 0.00 86 1017.6
20260508101505 10 0 0.0 3.2 0.00 0.00 0.00 86 1017.5
20260508101005 10 248 0.0 1.6 0.00 0.00 0.00 86 1017.4
20260508100005 10 318 0.0 3.2 0.00 0.00 0.00 86 1017.5
20260508095005 10 350 0.0 3.2 0.00 0.00 0.00 86 1017.3
20260508094005 10 249 1.6 3.2 0.00 0.00 0.00 86 1017.3
20260508093504 10 248 1.6 3.2 0.00 0.00 0.00 86 1017.2
20260508093005 10 346 1.6 1.6 0.00 0.00 0.00 86 1017.1
20260508092504 10 266 1.6 1.6 0.00 0.00 0.00 85 1017.1
20260508092004 10 249 1.6 1.6 0.00 0.00 0.00 85 1017.0
20260508091504 10 248 1.6 3.2 0.00 0.00 0.00 85 1017.0
20260508091005 10 290 0.0 3.2 0.00 0.00 0.00 85 1016.9
20260508090005 10 248 0.0 1.6 0.00 0.00 0.00 85 1016.9
20260508085504 10 355 0.0 1.6 0.00 0.00 0.00 84 1016.9
20260508085004 10 0 0.0 3.2 0.00 0.00 0.00 84 1017.0
20260508084504 10 250 0.0 1.6 0.00 0.00 0.00 84 1016.9
20260508084005 10 248 0.0 0.0 0.00 0.00 0.00 84 1016.9
20260508083504 10 248 0.0 0.0 0.00 0.00 0.00 84 1016.9
20260508083005 10 248 0.0 0.0 0.00 0.00 0.00 83 1016.9
20260508082504 10 248 0.0 3.2 0.00 0.00 0.00 83 1016.9
20260508082004 10 248 1.6 3.2 0.00 0.00 0.00 83 1016.8
20260508081505 11 347 0.0 1.6 0.00 0.00 0.00 82 1016.8
20260508081004 11 322 1.6 1.6 0.00 0.00 0.00 82 1016.7
20260508080504 11 252 0.0 3.2 0.00 0.00 0.00 82 1016.7
20260508080004 11 0 0.0 0.0 0.00 0.00 0.00 82 1016.7
20260508075504 11 0 0.0 1.6 0.00 0.00 0.00 81 1016.7
20260508075004 11 0 0.0 3.2 0.00 0.00 0.00 81 1016.7
20260508074504 11 249 1.6 3.2 0.00 0.00 0.00 81 1016.7
20260508074005 11 264 1.6 1.6 0.00 0.00 0.00 80 1016.7
20260508073504 11 249 1.6 1.6 0.00 0.00 0.00 80 1016.7
20260508073005 11 280 1.6 1.6 0.00 0.00 0.00 79 1016.7
20260508070504 12 0 0.0 3.2 0.00 0.00 0.00 78 1016.7
20260508070005 12 259 1.6 1.6 0.00 0.00 0.00 77 1016.7
20260508065505 12 256 1.6 3.2 0.00 0.00 0.00 77 1016.7
20260508065005 12 254 1.6 1.6 0.00 0.00 0.00 76 1016.7
20260508064505 12 242 0.0 3.2 0.00 0.00 0.00 76 1016.6
20260508064004 13 0 0.0 3.2 0.00 0.00 0.00 76 1016.5
20260508063005 13 275 1.6 4.8 0.00 0.00 0.00 74 1016.7
20260508062504 13 81 1.6 4.8 0.00 0.00 0.00 74 1016.5
20260508062005 13 118 1.6 4.8 0.00 0.00 0.00 74 1016.6
20260508061505 13 139 1.6 3.2 0.00 0.00 0.00 71 1016.6
20260508061005 14 186 1.6 3.2 0.00 0.00 0.00 71 1016.6
20260508060505 14 189 1.6 3.2 0.00 0.00 0.00 70 1016.6
20260508060005 14 229 0.0 3.2 0.00 0.00 0.00 71 1016.6
20260508055504 14 229 1.6 3.2 0.00 0.00 0.00 70 1016.6
20260508055004 15 159 3.2 3.2 0.00 0.00 0.00 69 1016.5
20260508054505 15 128 1.6 3.2 0.00 0.00 0.00 69 1016.6
20260508054005 15 321 1.6 3.2 0.00 0.00 0.00 69 1016.6
20260508053504 15 309 0.0 3.2 0.00 0.00 0.00 68 1016.7
20260508053005 15 309 1.6 3.2 0.00 0.00 0.00 67 1016.7
20260508052505 15 309 1.6 3.2 0.00 0.00 0.00 67 1016.6
20260508051504 15 335 3.2 3.2 0.00 0.00 0.00 66 1016.7
20260508051004 16 328 1.6 9.7 0.00 0.00 0.00 65 1016.7
20260508050504 16 334 3.2 9.7 0.00 0.00 0.00 65 1016.6
20260508050005 16 336 4.8 8.0 0.00 0.00 0.00 65 1016.6
20260508045504 16 326 3.2 8.0 0.00 0.00 0.00 65 1016.6
20260508045004 16 324 3.2 8.0 0.00 0.00 0.00 65 1016.6
20260508044505 16 327 3.2 4.8 0.00 0.00 0.00 65 1016.6
20260508043504 16 339 3.2 8.0 0.00 0.00 0.00 64 1016.5
20260508043004 16 332 3.2 9.7 0.00 0.00 0.00 64 1016.7
20260508042504 16 330 4.8 8.0 0.00 0.00 0.00 64 1016.6
20260508042004 16 342 4.8 8.0 0.00 0.00 0.00 64 1016.5
20260508041504 16 333 8.0 11.3 0.00 0.00 0.00 63 1016.5
20260508041004 16 349 4.8 11.3 0.00 0.00 0.00 64 1016.4
20260508040504 16 351 4.8 8.0 0.00 0.00 0.00 64 1016.3
20260508034505 16 323 1.6 3.2 0.00 0.00 0.00 66 1016.1
20260508034004 16 296 0.0 3.2 0.00 0.00 0.00 65 1016.1
20260508033504 17 296 1.6 3.2 0.00 0.00 0.00 64 1016.0
20260508033005 17 321 1.6 3.2 0.00 0.00 0.00 64 1015.9
20260508032504 17 340 1.6 3.2 0.00 0.00 0.00 63 1015.9
20260508032004 17 315 1.6 3.2 0.00 0.00 0.00 64 1015.8
20260508031005 18 294 1.6 3.2 0.00 0.00 0.00 64 1015.7
20260508030504 18 294 1.6 3.2 0.00 0.00 0.00 63 1015.7
20260508030004 18 293 1.6 3.2 0.00 0.00 0.00 62 1015.6
20260508025505 18 333 0.0 3.2 0.00 0.00 0.00 63 1015.6
20260508024505 19 333 0.0 3.2 0.00 0.00 0.00 64 1015.5
20260508024004 20 256 1.6 1.6 0.00 0.00 0.00 61 1015.5
20260508023504 20 246 0.0 1.6 0.00 0.00 0.00 64 1015.5
20260508022504 21 246 1.6 3.2 0.00 0.00 0.00 55 1015.6
20260508022005 21 220 0.0 3.2 0.00 0.00 0.00 57 1015.6
20260508021504 21 220 0.0 3.2 0.00 0.00 0.00 55 1015.6
20260508021004 21 232 3.2 4.8 0.00 0.00 0.00 53 1015.6
20260508020504 21 244 1.6 3.2 0.00 0.00 0.00 51 1015.6
20260508020004 21 64 0.0 3.2 0.00 0.00 0.00 52 1015.6
20260508015504 22 67 1.6 1.6 0.00 0.00 0.00 52 1015.7
20260508015005 22 53 1.6 3.2 0.00 0.00 0.00 51 1015.7
20260508014504 22 275 1.6 3.2 0.00 0.00 0.00 49 1015.6
20260508013504 22 83 3.2 4.8 0.00 0.00 0.00 47 1015.8
20260508013005 23 122 3.2 4.8 0.00 0.00 0.00 48 1015.8
20260508012504 23 181 1.6 3.2 0.00 0.00 0.00 49 1015.9
20260508011504 22 223 3.2 3.2 0.00 0.00 0.00 48 1016.1
20260508011004 22 207 1.6 3.2 0.00 0.00 0.00 48 1016.1
20260508010503 22 254 1.6 1.6 0.00 0.00 0.00 49 1016.2
20260508010004 21 310 1.6 8.0 0.00 0.00 0.00 52 1016.2
20260508005504 21 84 3.2 4.8 0.00 0.00 0.00 52 1016.2
20260508005005 21 9 3.2 4.8 0.00 0.00 0.00 54 1016.2
20260508004505 21 359 1.6 3.2 0.00 0.00 0.00 52 1016.2
20260508004004 21 44 1.6 3.2 0.00 0.00 0.00 53 1016.2
20260508003504 21 50 3.2 4.8 0.00 0.00 0.00 53 1016.3
20260508003005 21 11 1.6 3.2 0.00 0.00 0.00 54 1016.3
20260508001004 21 46 1.6 4.8 0.00 0.00 0.00 52 1016.5
20260508000504 21 68 6.4 12.9 0.00 0.00 0.00 53 1016.5
20260508000004 21 39 3.2 4.8 0.00 0.00 0.00 53 1016.5
20260507235504 21 15 1.6 3.2 0.00 0.00 0.00 53 1016.5
20260507235004 21 24 3.2 4.8 0.00 0.00 0.00 52 1016.5
20260507234504 21 26 3.2 4.8 0.00 0.00 0.00 53 1016.5
20260507234004 20 64 3.2 4.8 0.00 0.00 0.00 53 1016.6
20260507233505 20 355 3.2 9.7 0.00 0.00 0.00 54 1016.7
20260507233007 20 47 4.8 8.0 0.00 0.00 0.00 55 1016.7
20260507232504 20 22 1.6 3.2 0.00 0.00 0.00 56 1016.8
20260507232006 20 18 1.6 3.2 0.00 0.00 0.00 54 1016.9
20260507231507 20 0 3.2 4.8 0.00 0.00 0.00 54 1016.9
20260507231005 20 5 3.2 9.7 0.00 0.00 0.00 55 1017.0
20260507225505 20 66 3.2 8.0 0.00 0.00 0.00 55 1017.3
20260507225005 20 62 3.2 11.3 0.00 0.00 0.00 52 1017.4
20260507224507 20 8 3.2 4.8 0.00 0.00 0.00 52 1017.5
20260507224005 20 338 3.2 4.8 0.00 0.00 0.00 55 1017.6
20260507223006 20 79 3.2 4.8 0.00 0.00 0.00 52 1017.7
20260507222505 20 68 1.6 8.0 0.00 0.00 0.00 53 1017.8
20260507222005 20 183 6.4 12.9 0.00 0.00 0.00 55 1017.8
20260507221505 19 91 4.8 12.9 0.00 0.00 0.00 53 1017.8
20260507221005 19 108 3.2 8.0 0.00 0.00 0.00 52 1018.0
20260507220505 19 31 1.6 8.0 0.00 0.00 0.00 55 1018.0
20260507220006 19 83 3.2 8.0 0.00 0.00 0.00 56 1018.1
20260507215505 18 36 1.6 4.8 0.00 0.00 0.00 55 1018.2
20260507215005 18 7 3.2 3.2 0.00 0.00 0.00 56 1018.2
20260507214505 18 349 4.8 12.9 0.00 0.00 0.00 55 1018.3
20260507214005 18 58 1.6 9.7 0.00 0.00 0.00 55 1018.3
20260507213505 18 73 3.2 9.7 0.00 0.00 0.00 56 1018.3
20260507213005 18 24 1.6 3.2 0.00 0.00 0.00 56 1018.4
20260507212505 18 314 1.6 4.8 0.00 0.00 0.00 56 1018.4
20260507212005 18 13 4.8 9.7 0.00 0.00 0.00 56 1018.5
20260507211505 17 13 1.6 9.7 0.00 0.00 0.00 57 1018.5
20260507211005 17 348 4.8 8.0 0.00 0.00 0.00 57 1018.6
20260507210505 17 60 4.8 9.7 0.00 0.00 0.00 57 1018.6
20260507205506 17 31 4.8 8.0 0.00 0.00 0.00 58 1018.8
20260507205006 17 334 3.2 8.0 0.00 0.00 0.00 62 1018.8
20260507204506 17 8 1.6 8.0 0.00 0.00 0.00 57 1018.8
20260507204005 17 2 3.2 12.9 0.00 0.00 0.00 58 1018.9
20260507203506 17 36 4.8 9.7 0.00 0.00 0.00 60 1019.0
20260507203006 17 21 4.8 9.7 0.00 0.00 0.00 59 1019.0
20260507202505 17 9 3.2 8.0 0.00 0.00 0.00 58 1019.1
20260507202005 17 6 4.8 9.7 0.00 0.00 0.00 60 1019.2
20260507201505 16 2 3.2 4.8 0.00 0.00 0.00 60 1019.3
20260507201005 17 50 4.8 8.0 0.00 0.00 0.00 60 1019.3
20260507200505 16 47 3.2 11.3 0.00 0.00 0.00 60 1019.4
20260507200005 16 72 3.2 12.9 0.00 0.00 0.00 60 1019.5
20260507195506 16 4 3.2 12.9 0.00 0.00 0.00 59 1019.5
20260507195005 16 77 8.0 14.5 0.00 0.00 0.00 58 1019.6
20260507194505 16 49 1.6 4.8 0.00 0.00 0.00 61 1019.7
20260507194005 16 9 3.2 12.9 0.00 0.00 0.00 60 1019.6
20260507193006 16 67 3.2 11.3 0.00 0.00 0.00 64 1019.8
20260507192506 15 29 3.2 12.9 0.00 0.00 0.00 62 1019.7
20260507192005 15 349 3.2 8.0 0.00 0.00 0.00 61 1019.9
20260507191505 16 52 6.4 14.5 0.00 0.00 0.00 61 1020.0
20260507191005 16 124 4.8 11.3 0.00 0.00 0.00 60 1019.9
20260507190505 15 119 8.0 14.5 0.00 0.00 0.00 61 1020.0
20260507190006 16 344 3.2 12.9 0.00 0.00 0.00 63 1020.0
20260507185505 16 84 4.8 12.9 0.00 0.00 0.00 64 1020.0
20260507185005 16 5 1.6 12.9 0.00 0.00 0.00 61 1020.1
20260507184505 16 90 4.8 11.3 0.00 0.00 0.00 61 1020.1
20260507184005 15 147 6.4 14.5 0.00 0.00 0.00 62 1020.1
20260507183505 15 65 3.2 9.7 0.00 0.00 0.00 61 1020.2
20260507183006 15 41 3.2 14.5 0.00 0.00 0.00 59 1020.3
20260507182504 15 145 6.4 14.5 0.00 0.00 0.00 60 1020.3
20260507181505 14 307 3.2 4.8 0.00 0.00 0.00 66 1020.4
20260507181005 14 341 3.2 4.8 0.00 0.00 0.00 66 1020.4
20260507180504 13 338 1.6 4.8 0.00 0.00 0.00 68 1020.5
20260507180005 13 335 3.2 3.2 0.00 0.00 0.00 67 1020.5
20260507175505 14 15 3.2 4.8 0.00 0.00 0.00 67 1020.5
20260507175005 14 30 1.6 3.2 0.00 0.00 0.00 65 1020.6
20260507174505 14 351 3.2 9.7 0.00 0.00 0.00 66 1020.6
20260507174005 14 44 3.2 12.9 0.00 0.00 0.00 66 1020.6
20260507173505 13 23 4.8 11.3 0.00 0.00 0.00 67 1020.7
20260507173006 13 318 1.6 4.8 0.00 0.00 0.00 67 1020.7
20260507172505 13 346 3.2 4.8 0.00 0.00 0.00 69 1020.7
20260507172005 13 312 3.2 4.8 0.00 0.00 0.00 68 1020.7
20260507171505 13 332 4.8 8.0 0.00 0.00 0.00 68 1020.8
20260507171005 13 353 3.2 4.8 0.00 0.00 0.00 68 1020.8
20260507170505 13 43 1.6 4.8 0.00 0.00 0.00 68 1020.8
20260507165505 13 341 3.2 8.0 0.00 0.00 0.00 69 1020.7
20260507165005 12 173 3.2 4.8 0.00 0.00 0.00 68 1020.8
20260507164505 12 310 3.2 8.0 0.00 0.00 0.00 69 1020.9
20260507164005 12 290 1.6 8.0 0.00 0.00 0.00 70 1020.9
20260507163005 12 0 3.2 4.8 0.00 0.00 0.00 70 1020.9
20260507162505 12 17 3.2 8.0 0.00 0.00 0.00 71 1020.9
20260507162005 11 0 4.8 8.0 0.00 0.00 0.00 71 1020.9
20260507161505 11 327 4.8 8.0 0.00 0.00 0.00 72 1020.9
20260507161005 11 334 3.2 8.0 0.00 0.00 0.00 72 1020.9
20260507160504 11 329 4.8 8.0 0.00 0.00 0.00 75 1021.0
20260507160005 11 8 4.8 8.0 0.00 0.00 0.00 74 1021.0
20260507155505 11 3 3.2 8.0 0.00 0.00 0.00 74 1021.1
20260507155005 11 358 6.4 11.3 0.00 0.00 0.00 74 1021.0
20260507154505 11 330 4.8 4.8 0.00 0.00 0.00 75 1021.0
20260507154006 10 345 3.2 9.7 0.00 0.00 0.00 75 1021.0
20260507153505 10 335 6.4 9.7 0.00 0.00 0.00 75 1021.1
20260507152505 10 329 3.2 8.0 0.00 0.00 0.00 76 1021.0
20260507152005 10 342 1.6 4.8 0.00 0.00 0.00 76 1021.0
20260507151505 10 321 1.6 8.0 0.00 0.00 0.00 76 1021.0
20260507151005 10 5 3.2 8.0 0.00 0.00 0.00 76 1020.9
20260507150505 10 343 1.6 4.8 0.00 0.00 0.00 76 1021.0
20260507150006 10 328 3.2 4.8 0.00 0.00 0.00 76 1021.0
20260507145506 10 357 3.2 8.0 0.00 0.00 0.00 76 1021.0
20260507144005 10 337 3.2 8.0 0.00 0.00 0.00 76 1020.9
20260507143505 10 358 3.2 8.0 0.00 0.00 0.00 76 1020.9
20260507142505 10 345 3.2 3.2 0.00 0.00 0.00 76 1020.9
20260507142005 10 315 1.6 9.7 0.00 0.00 0.00 76 1020.9
20260507141505 10 330 4.8 8.0 0.00 0.00 0.00 77 1020.9
20260507141007 10 331 3.2 8.0 0.00 0.00 0.00 77 1020.8
20260507140505 10 350 3.2 4.8 0.00 0.00 0.00 77 1020.7
20260507140006 10 336 3.2 4.8 0.00 0.00 0.00 78 1020.8
20260507135505 10 354 1.6 3.2 0.00 0.00 0.00 78 1020.7
20260507135006 10 335 1.6 8.0 0.00 0.00 0.00 77 1020.7
20260507134505 10 335 4.8 8.0 0.00 0.00 0.00 77 1020.6
20260507134005 10 329 3.2 9.7 0.00 0.00 0.00 77 1020.6
20260507133505 10 342 4.8 8.0 0.00 0.00 0.00 77 1020.6
20260507133005 10 332 4.8 8.0 0.00 0.00 0.00 77 1020.5
20260507132505 10 345 4.8 9.7 0.00 0.00 0.00 77 1020.6
20260507132005 10 327 4.8 8.0 0.00 0.00 0.00 77 1020.6
20260507131505 10 350 3.2 9.7 0.00 0.00 0.00 77 1020.5
20260507130505 10 339 3.2 8.0 0.00 0.00 0.00 77 1020.5
20260507125504 10 341 4.8 8.0 0.00 0.00 0.00 77 1020.4
20260507125005 10 335 3.2 4.8 0.00 0.00 0.00 77 1020.4
20260507124005 10 332 3.2 4.8 0.00 0.00 0.00 77 1020.4
20260507123505 10 329 1.6 3.2 0.00 0.00 0.00 77 1020.4
20260507123006 10 331 1.6 3.2 0.00 0.00 0.00 77 1020.5
20260507122505 10 328 1.6 3.2 0.00 0.00 0.00 76 1020.4
20260507122005 10 319 1.6 4.8 0.00 0.00 0.00 76 1020.5
20260507121005 10 333 1.6 4.8 0.00 0.00 0.00 76 1020.6
20260507120505 10 337 3.2 4.8 0.00 0.00 0.00 76 1020.7
20260507120005 11 330 1.6 4.8 0.00 0.00 0.00 76 1020.7